This demonstration page uses our WeatherBlox Daily Observations layout. Learn more.

Left ArrowRight Arrow

30.00354, -91.81873

Hourly Observations for September 16, 2022

Temp ( °F °C ) Dew Point ( °F °C ) Humidity (%) Winds ( mph kmh ) Pressure ( in mb ) Visibility ( mi km ) Precip ( " mm )
12:53 am 00:53 Clear 71 21.7 66 18.9 84 84 SE 3 6 30.06 1018 10 16 0.00 0.00
1:53 am 01:53 Clear 70 21.1 66 18.9 87 87 Calm 30.05 1018 10 16 0.00 0.00
2:53 am 02:53 Clear 70 21.1 67 19.4 90 90 Calm 30.04 1017 10 16 0.00 0.00
3:53 am 03:53 Clear 69 20.6 66 18.9 90 90 Calm 30.03 1017 9 14 0.00 0.00
4:53 am 04:53 Clear 69 20.6 66 18.9 90 90 NE 5 7 30.03 1017 10 16 0.00 0.00
5:53 am 05:53 Clear 70 21.1 67 19.4 90 90 NE 3 6 30.04 1017 10 16 0.00 0.00
6:53 am 06:53 Sunny 68 20 65 18.3 90 90 Calm 30.05 1018 10 16 0.00 0.00
7:53 am 07:53 Sunny 72 22.2 67 19.4 84 84 ENE 5 7 30.07 1018 10 16 0.00 0.00
8:53 am 08:53 Sunny 76 24.4 67 19.4 74 74 ENE 7 11 30.08 1019 10 16 0.00 0.00
9:53 am 09:53 Sunny 81 27.2 67 19.4 62 62 ENE 7 11 30.09 1019 10 16 0.00 0.00
10:53 am 10:53 Sunny 86 30 68 20 55 55 E 8 13 30.09 1019 10 16 0.00 0.00
11:53 am 11:53 Mostly Sunny 86 30 69 20.6 57 57 VRB 6 9 30.08 1019 10 16 0.00 0.00
12:53 pm 12:53 Mostly Sunny 89 31.7 67 19.4 48 48 SSE 5 7 30.06 1018 10 16 0.00 0.00
1:53 pm 13:53 Sunny 90 32.2 67 19.4 47 47 Calm 30.04 1017 10 16 0.00 0.00
2:53 pm 14:53 Mostly Sunny 92 33.3 68 20 46 46 VRB 5 7 30.03 1017 10 16 0.00 0.00
3:53 pm 15:53 Mostly Sunny 92 33.3 67 19.4 44 44 NNE 5 7 30.00 1016 10 16 0.00 0.00
4:53 pm 16:53 Partly Cloudy 88 31.1 68 20 52 52 SSE 5 7 30.00 1016 10 16 0.00 0.00
5:53 pm 17:53 Sunny 87 30.6 67 19.4 51 51 E 5 7 29.99 1016 10 16 0.00 0.00
6:53 pm 18:53 Mostly Cloudy 85 29.4 69 20.6 59 59 SSE 3 6 30.00 1016 10 16 0.00 0.00
7:53 pm 19:53 Clear 80 26.7 69 20.6 69 69 Calm 30.01 1016 10 16 0.00 0.00
8:53 pm 20:53 Clear 78 25.6 70 21.1 76 76 Calm 30.02 1017 10 16 0.00 0.00
9:53 pm 21:53 Partly Cloudy 77 25 70 21.1 79 79 E 6 9 30.04 1017 10 16 0.00 0.00
10:53 pm 22:53 Mostly Cloudy 76 24.4 71 21.7 85 85 SE 6 9 30.05 1018 10 16 0.00 0.00
11:53 pm 23:53 Clear 75 23.9 71 21.7 88 88 SE 6 9 30.05 1018 10 16 0.00 0.00

Powered by AerisWeather